Tracking 20037 objects as of 17-Nov-2019
Live streaming from Space Station
objects crossing your sky now

ERS 1

Track ERS 1 now!
10-day predictions
ERS 1 is classified as:


NORAD ID: 21574
Int'l Code: 1991-050A
Perigee: 750.0 km
Apogee: 796.4 km
Inclination: 98.6 °
Period: 100.2 minutes
Semi major axis: 7144 km
RCS: 11.0086 m2 (large)
Launch date: July 17, 1991
Source: European Space Agency (ESA)
Launch site: FRENCH GUIANA (FRGUI)
aabbcc
Your satellite tracking list
Your tracking list is empty




NASA's NSSDC Master Catalog

Two Line Element Set (TLE):
1 21574U 91050A   19320.97211025  .00000037  00000-0  27072-4 0  9998
2 21574  98.5686 269.6114 0032419 200.9521 159.0339 14.37716779484424
Source of the keplerian elements: AFSPC